Time,TemperatureF,DewpointF,PressureIn,WindDirection,WindDirectionDegrees,WindSpeedMPH,WindSpeedGustMPH,Humidity,HourlyPrecipIn,Conditions,Clouds,dailyrainin,SoftwareType,DateUTC
2013-06-21 00:00:00,63.2,61.5,30.22,NW,313,0.0,0.0,94,0.00,,---,0.00,VWS V14.01,2013-06-21 04:00:00,
2013-06-21 00:01:00,63.2,61.5,30.22,NW,313,0.0,0.0,94,0.00,,---,0.00,VWS V14.01,2013-06-21 04:01:00,
2013-06-21 00:02:00,63.2,61.5,30.22,NW,312,0.0,0.0,94,0.00,,---,0.00,VWS V14.01,2013-06-21 04:02:00,
2013-06-21 00:07:00,63.0,61.2,30.22,NW,312,0.0,0.0,94,0.00,,---,0.00,VWS V14.01,2013-06-21 04:07:00,
2013-06-21 00:12:00,62.9,61.2,30.22,NW,312,0.0,0.0,94,0.00,,---,0.00,VWS V14.01,2013-06-21 04:12:00,
2013-06-21 00:17:00,62.9,61.2,30.21,NW,312,0.0,0.0,94,0.00,,---,0.00,VWS V14.01,2013-06-21 04:17:00,
2013-06-21 00:22:00,62.7,60.7,30.21,NW,313,0.0,0.0,93,0.00,,---,0.00,VWS V14.01,2013-06-21 04:22:00,
2013-06-21 00:27:00,62.6,60.2,30.22,NW,313,0.0,0.0,92,0.00,,---,0.00,VWS V14.01,2013-06-21 04:27:00,
2013-06-21 00:32:00,62.5,60.2,30.22,NW,312,0.0,0.0,92,0.00,,---,0.00,VWS V14.01,2013-06-21 04:32:00,
2013-06-21 00:37:00,62.4,60.0,30.21,NW,313,0.0,0.0,92,0.00,,---,0.00,VWS V14.01,2013-06-21 04:37:00,
2013-06-21 00:42:00,62.2,59.8,30.21,NW,312,0.0,0.0,92,0.00,,---,0.00,VWS V14.01,2013-06-21 04:42:00,
2013-06-21 00:47:00,62.1,59.8,30.21,NW,312,0.0,0.0,92,0.00,,---,0.00,VWS V14.01,2013-06-21 04:47:00,
2013-06-21 00:52:00,61.8,59.5,30.21,NW,313,0.0,0.0,92,0.00,,---,0.00,VWS V14.01,2013-06-21 04:52:00,
2013-06-21 00:57:00,61.6,59.3,30.21,NW,312,0.0,0.0,92,0.00,,---,0.00,VWS V14.01,2013-06-21 04:57:00,
2013-06-21 01:02:00,61.4,59.1,30.21,NW,313,0.0,0.0,92,0.00,,---,0.00,VWS V14.01,2013-06-21 05:02:00,
2013-06-21 01:07:00,61.3,59.0,30.21,NW,313,0.0,0.0,92,0.00,,---,0.00,VWS V14.01,2013-06-21 05:07:00,
2013-06-21 01:12:00,61.0,58.7,30.21,NW,313,0.0,0.0,92,0.00,,---,0.00,VWS V14.01,2013-06-21 05:12:00,
2013-06-21 01:17:00,60.9,58.9,30.21,NW,312,0.0,0.0,93,0.00,,---,0.00,VWS V14.01,2013-06-21 05:17:00,
2013-06-21 01:22:00,60.8,58.8,30.21,NW,313,0.0,0.0,93,0.00,,---,0.00,VWS V14.01,2013-06-21 05:22:00,
2013-06-21 01:27:00,60.7,58.7,30.21,NW,312,0.0,0.0,93,0.00,,---,0.00,VWS V14.01,2013-06-21 05:27:00,
2013-06-21 01:32:00,60.6,58.6,30.20,NW,313,0.0,0.0,93,0.00,,---,0.00,VWS V14.01,2013-06-21 05:32:00,
2013-06-21 01:37:00,60.4,58.4,30.20,NW,312,0.0,0.0,93,0.00,,---,0.00,VWS V14.01,2013-06-21 05:37:00,
2013-06-21 01:42:00,60.1,58.1,30.20,NW,313,0.0,0.0,93,0.00,,---,0.00,VWS V14.01,2013-06-21 05:42:00,
2013-06-21 01:47:00,59.9,57.9,30.20,NW,313,0.0,0.0,93,0.00,,---,0.00,VWS V14.01,2013-06-21 05:47:00,
2013-06-21 01:52:00,59.8,57.8,30.20,NW,313,0.0,0.0,93,0.00,,---,0.00,VWS V14.01,2013-06-21 05:52:00,
2013-06-21 01:57:00,59.6,57.6,30.20,NW,313,0.0,0.0,93,0.00,,---,0.00,VWS V14.01,2013-06-21 05:57:00,
2013-06-21 02:02:00,59.4,57.4,30.20,NW,313,0.0,0.0,93,0.00,,---,0.00,VWS V14.01,2013-06-21 06:02:00,
2013-06-21 02:07:00,59.2,56.9,30.20,NW,313,0.0,0.0,92,0.00,,---,0.00,VWS V14.01,2013-06-21 06:07:00,
2013-06-21 02:12:00,59.0,56.7,30.20,NW,313,0.0,0.0,92,0.00,,---,0.00,VWS V14.01,2013-06-21 06:12:00,
2013-06-21 02:17:00,58.8,56.5,30.20,NW,313,0.0,0.0,92,0.00,,---,0.00,VWS V14.01,2013-06-21 06:17:00,
2013-06-21 02:22:00,58.7,56.4,30.20,NW,313,0.0,0.0,92,0.00,,---,0.00,VWS V14.01,2013-06-21 06:22:00,
2013-06-21 02:27:00,58.6,56.6,30.20,NW,312,0.0,0.0,93,0.00,,---,0.00,VWS V14.01,2013-06-21 06:27:00,
2013-06-21 02:33:00,58.5,56.5,30.20,NW,313,0.0,0.0,93,0.00,,---,0.00,VWS V14.01,2013-06-21 06:33:00,
2013-06-21 02:38:00,58.3,56.0,30.20,NW,312,0.0,0.0,92,0.00,,---,0.00,VWS V14.01,2013-06-21 06:38:00,
2013-06-21 02:43:00,58.0,56.0,30.20,NW,313,0.0,0.0,93,0.00,,---,0.00,VWS V14.01,2013-06-21 06:43:00,
2013-06-21 02:48:00,57.9,55.9,30.20,NW,313,0.0,0.0,93,0.00,,---,0.00,VWS V14.01,2013-06-21 06:48:00,
2013-06-21 02:53:00,57.8,55.8,30.20,NW,313,0.0,0.0,93,0.00,,---,0.00,VWS V14.01,2013-06-21 06:53:00,
2013-06-21 02:58:00,57.7,55.7,30.20,NW,313,0.0,0.0,93,0.00,,---,0.00,VWS V14.01,2013-06-21 06:58:00,
2013-06-21 03:03:00,57.6,55.6,30.21,NW,313,0.0,0.0,93,0.00,,---,0.00,VWS V14.01,2013-06-21 07:03:00,
2013-06-21 03:08:00,57.5,55.8,30.20,NW,312,0.0,0.0,94,0.00,,---,0.00,VWS V14.01,2013-06-21 07:08:00,
2013-06-21 03:13:00,57.3,55.6,30.20,NW,313,0.0,0.0,94,0.00,,---,0.00,VWS V14.01,2013-06-21 07:13:00,
2013-06-21 03:18:00,57.2,55.5,30.20,NW,313,0.0,0.0,94,0.00,,---,0.00,VWS V14.01,2013-06-21 07:18:00,
2013-06-21 03:23:00,57.0,55.3,30.20,NW,312,0.0,0.0,94,0.00,,---,0.00,VWS V14.01,2013-06-21 07:23:00,
2013-06-21 03:28:00,56.9,55.2,30.21,NW,312,0.0,0.0,94,0.00,,---,0.00,VWS V14.01,2013-06-21 07:28:00,
2013-06-21 03:33:00,56.8,55.1,30.20,NW,313,0.0,0.0,94,0.00,,---,0.00,VWS V14.01,2013-06-21 07:33:00,
2013-06-21 03:38:00,56.7,55.0,30.20,NW,313,0.0,0.0,94,0.00,,---,0.00,VWS V14.01,2013-06-21 07:38:00,
2013-06-21 03:43:00,56.5,54.8,30.20,NW,313,0.0,0.0,94,0.00,,---,0.00,VWS V14.01,2013-06-21 07:43:00,
2013-06-21 03:48:00,56.4,54.7,30.20,NW,313,0.0,0.0,94,0.00,,---,0.00,VWS V14.01,2013-06-21 07:48:00,
2013-06-21 03:53:00,56.2,54.5,30.20,NW,313,0.0,0.0,94,0.00,,---,0.00,VWS V14.01,2013-06-21 07:53:00,
2013-06-21 03:58:00,56.1,54.4,30.20,NW,313,0.0,0.0,94,0.00,,---,0.00,VWS V14.01,2013-06-21 07:58:00,
2013-06-21 04:03:00,56.0,54.3,30.20,NW,313,0.0,0.0,94,0.00,,---,0.00,VWS V14.01,2013-06-21 08:03:00,
2013-06-21 04:08:00,55.9,54.2,30.20,NW,313,0.0,0.0,94,0.00,,---,0.00,VWS V14.01,2013-06-21 08:08:00,
2013-06-21 04:13:00,55.8,54.1,30.20,NW,313,0.0,0.0,94,0.00,,---,0.00,VWS V14.01,2013-06-21 08:13:00,
2013-06-21 04:18:00,55.8,54.4,30.20,NW,313,0.0,0.0,95,0.00,,---,0.00,VWS V14.01,2013-06-21 08:18:00,
2013-06-21 04:23:00,55.7,54.0,30.21,NW,312,0.0,0.0,94,0.00,,---,0.00,VWS V14.01,2013-06-21 08:23:00,
2013-06-21 04:28:00,55.7,54.0,30.21,NW,313,0.0,0.0,94,0.00,,---,0.00,VWS V14.01,2013-06-21 08:28:00,
2013-06-21 04:33:00,55.7,54.3,30.21,NW,312,0.0,0.0,95,0.00,,---,0.00,VWS V14.01,2013-06-21 08:33:00,
2013-06-21 04:38:00,55.6,54.2,30.21,NW,312,0.0,0.0,95,0.00,,---,0.00,VWS V14.01,2013-06-21 08:38:00,
2013-06-21 04:43:00,55.6,54.2,30.21,NW,313,0.0,0.0,95,0.00,,---,0.00,VWS V14.01,2013-06-21 08:43:00,
2013-06-21 04:48:00,55.6,54.2,30.21,NW,313,0.0,0.0,95,0.00,,---,0.00,VWS V14.01,2013-06-21 08:48:00,
2013-06-21 04:53:00,55.5,54.1,30.21,NW,312,0.0,0.0,95,0.00,,---,0.00,VWS V14.01,2013-06-21 08:53:00,
2013-06-21 04:58:00,55.5,54.1,30.21,NW,313,0.0,0.0,95,0.00,,---,0.00,VWS V14.01,2013-06-21 08:58:00,
2013-06-21 05:03:00,55.5,54.1,30.22,NW,313,0.0,0.0,95,0.00,,---,0.00,VWS V14.01,2013-06-21 09:03:00,
2013-06-21 05:08:00,55.5,54.1,30.21,NW,312,0.0,0.0,95,0.00,,---,0.00,VWS V14.01,2013-06-21 09:08:00,
2013-06-21 05:13:00,55.4,54.0,30.21,NW,312,0.0,0.0,95,0.00,,---,0.00,VWS V14.01,2013-06-21 09:13:00,
2013-06-21 05:18:00,55.3,53.9,30.21,NW,313,0.0,0.0,95,0.00,,---,0.00,VWS V14.01,2013-06-21 09:18:00,
2013-06-21 05:23:00,55.3,53.9,30.21,NW,313,0.0,0.0,95,0.00,,---,0.00,VWS V14.01,2013-06-21 09:23:00,
2013-06-21 05:28:00,55.3,53.9,30.21,NW,313,0.0,0.0,95,0.00,,---,0.00,VWS V14.01,2013-06-21 09:28:00,
2013-06-21 05:34:00,55.2,53.8,30.21,NW,313,0.0,0.0,95,0.00,,---,0.00,VWS V14.01,2013-06-21 09:34:00,
2013-06-21 05:39:00,55.2,53.8,30.21,NW,313,0.0,0.0,95,0.00,,---,0.00,VWS V14.01,2013-06-21 09:39:00,
2013-06-21 05:44:00,55.2,53.8,30.21,NW,313,0.0,0.0,95,0.00,,---,0.00,VWS V14.01,2013-06-21 09:44:00,
2013-06-21 05:49:00,55.3,53.9,30.22,NW,313,0.0,0.0,95,0.00,,---,0.00,VWS V14.01,2013-06-21 09:49:00,
2013-06-21 05:54:00,55.3,54.2,30.22,NW,313,0.0,0.0,96,0.00,,---,0.00,VWS V14.01,2013-06-21 09:54:00,
2013-06-21 05:59:00,55.2,53.8,30.22,NW,312,0.0,0.0,95,0.00,,---,0.00,VWS V14.01,2013-06-21 09:59:00,
2013-06-21 06:04:00,55.2,53.8,30.22,NW,312,0.0,0.0,95,0.00,,---,0.00,VWS V14.01,2013-06-21 10:04:00,
2013-06-21 06:09:00,55.2,54.1,30.22,NW,313,0.0,0.0,96,0.00,,---,0.00,VWS V14.01,2013-06-21 10:09:00,
2013-06-21 06:14:00,55.2,54.1,30.22,NW,313,0.0,0.0,96,0.00,,---,0.00,VWS V14.01,2013-06-21 10:14:00,
2013-06-21 06:19:00,55.3,54.2,30.22,NW,313,0.0,0.0,96,0.00,,---,0.00,VWS V14.01,2013-06-21 10:19:00,
2013-06-21 06:24:00,55.4,54.3,30.22,NW,312,0.0,0.0,96,0.00,,---,0.00,VWS V14.01,2013-06-21 10:24:00,
2013-06-21 06:29:00,55.5,54.4,30.22,NW,313,0.0,0.0,96,0.00,,---,0.00,VWS V14.01,2013-06-21 10:29:00,
2013-06-21 06:34:00,55.6,54.5,30.23,NW,313,0.0,0.0,96,0.00,,---,0.00,VWS V14.01,2013-06-21 10:34:00,
2013-06-21 06:39:00,55.8,54.7,30.23,NW,313,0.0,0.0,96,0.00,,---,0.00,VWS V14.01,2013-06-21 10:39:00,
2013-06-21 06:44:00,55.9,54.8,30.23,NW,313,0.0,0.0,96,0.00,,---,0.00,VWS V14.01,2013-06-21 10:44:00,
2013-06-21 06:49:00,56.0,54.9,30.23,NW,313,0.0,0.0,96,0.00,,---,0.00,VWS V14.01,2013-06-21 10:49:00,
2013-06-21 06:54:00,56.2,55.1,30.23,NW,313,0.0,0.0,96,0.00,,---,0.00,VWS V14.01,2013-06-21 10:54:00,
2013-06-21 06:59:00,56.3,55.2,30.23,NW,312,0.0,0.0,96,0.00,,---,0.00,VWS V14.01,2013-06-21 10:59:00,
2013-06-21 07:04:00,56.5,55.4,30.23,NW,313,0.0,0.0,96,0.00,,---,0.00,VWS V14.01,2013-06-21 11:04:00,
2013-06-21 07:09:00,56.7,55.6,30.23,NW,312,0.0,0.0,96,0.00,,---,0.00,VWS V14.01,2013-06-21 11:09:00,
2013-06-21 07:14:00,57.0,55.9,30.23,NW,312,0.0,0.0,96,0.00,,---,0.00,VWS V14.01,2013-06-21 11:14:00,
2013-06-21 07:19:00,57.2,56.1,30.23,NW,313,0.0,0.0,96,0.00,,---,0.00,VWS V14.01,2013-06-21 11:19:00,
2013-06-21 07:24:00,57.5,56.4,30.23,NW,313,0.0,0.0,96,0.00,,---,0.00,VWS V14.01,2013-06-21 11:24:00,
2013-06-21 07:29:00,57.9,56.8,30.23,NW,312,0.0,0.0,96,0.00,,---,0.00,VWS V14.01,2013-06-21 11:29:00,
2013-06-21 07:34:00,58.1,57.0,30.23,NW,313,0.0,0.0,96,0.00,,---,0.00,VWS V14.01,2013-06-21 11:34:00,
2013-06-21 07:39:00,58.6,57.2,30.23,NW,312,0.0,0.0,95,0.00,,---,0.00,VWS V14.01,2013-06-21 11:39:00,
2013-06-21 07:44:00,58.9,57.5,30.23,NW,312,0.0,0.0,95,0.00,,---,0.00,VWS V14.01,2013-06-21 11:44:00,
2013-06-21 07:49:00,59.2,57.8,30.23,NW,312,0.0,0.0,95,0.00,,---,0.00,VWS V14.01,2013-06-21 11:49:00,
2013-06-21 07:54:00,59.6,58.2,30.23,NW,313,0.0,0.0,95,0.00,,---,0.00,VWS V14.01,2013-06-21 11:54:00,
2013-06-21 07:59:00,59.9,58.2,30.23,NW,313,0.0,0.0,94,0.00,,---,0.00,VWS V14.01,2013-06-21 11:59:00,
2013-06-21 08:04:00,60.2,58.5,30.23,NW,312,0.0,0.0,94,0.00,,---,0.00,VWS V14.01,2013-06-21 12:04:00,
2013-06-21 08:09:00,60.4,58.4,30.23,NW,313,0.0,0.0,93,0.00,,---,0.00,VWS V14.01,2013-06-21 12:09:00,
2013-06-21 08:14:00,60.7,58.4,30.23,NW,313,0.0,0.0,92,0.00,,---,0.00,VWS V14.01,2013-06-21 12:14:00,
2013-06-21 08:19:00,61.1,57.8,30.24,NW,315,0.0,2.0,89,0.00,,---,0.00,VWS V14.01,2013-06-21 12:19:00,
2013-06-21 08:24:00,61.5,58.2,30.23,NW,315,0.0,2.0,89,0.00,,---,0.00,VWS V14.01,2013-06-21 12:24:00,
2013-06-21 08:29:00,61.9,58.6,30.23,NW,315,0.0,0.0,89,0.00,,---,0.00,VWS V14.01,2013-06-21 12:29:00,
2013-06-21 08:34:00,62.1,57.9,30.24,NW,315,0.0,1.0,86,0.00,,---,0.00,VWS V14.01,2013-06-21 12:34:00,
2013-06-21 08:39:00,62.5,58.3,30.24,NW,315,0.0,1.0,86,0.00,,---,0.00,VWS V14.01,2013-06-21 12:39:00,
2013-06-21 08:44:00,62.7,57.5,30.24,NW,315,0.0,1.0,83,0.00,,---,0.00,VWS V14.01,2013-06-21 12:44:00,
2013-06-21 08:49:00,63.0,56.7,30.24,NW,315,1.0,1.0,80,0.00,,---,0.00,VWS V14.01,2013-06-21 12:49:00,
2013-06-21 08:54:00,63.5,57.9,30.24,NW,315,0.0,1.0,82,0.00,,---,0.00,VWS V14.01,2013-06-21 12:54:00,
2013-06-21 09:00:00,63.8,56.8,30.24,ENE,69,0.0,2.0,78,0.00,,---,0.00,VWS V14.01,2013-06-21 13:00:00,
2013-06-21 09:05:00,64.2,57.2,30.24,NE,36,0.0,2.0,78,0.00,,---,0.00,VWS V14.01,2013-06-21 13:05:00,
2013-06-21 09:10:00,64.7,57.7,30.24,NE,36,0.0,2.0,78,0.00,,---,0.00,VWS V14.01,2013-06-21 13:10:00,
2013-06-21 09:15:00,65.1,58.1,30.24,NNW,341,1.0,2.0,78,0.00,,---,0.00,VWS V14.01,2013-06-21 13:15:00,
2013-06-21 09:20:00,65.5,57.7,30.24,North,5,1.0,2.0,76,0.00,,---,0.00,VWS V14.01,2013-06-21 13:20:00,
2013-06-21 09:25:00,65.9,57.8,30.24,NNE,15,4.0,4.0,75,0.00,,---,0.00,VWS V14.01,2013-06-21 13:25:00,
2013-06-21 09:30:00,66.2,56.5,30.24,NNW,329,1.0,4.0,71,0.00,,---,0.00,VWS V14.01,2013-06-21 13:30:00,
2013-06-21 09:35:00,66.6,56.5,30.24,NNW,338,0.0,4.0,70,0.00,,---,0.00,VWS V14.01,2013-06-21 13:35:00,
2013-06-21 09:40:00,67.0,57.3,30.24,NNE,16,0.0,4.0,71,0.00,,---,0.00,VWS V14.01,2013-06-21 13:40:00,
2013-06-21 09:45:00,67.3,57.6,30.24,ENE,71,0.0,4.0,71,0.00,,---,0.00,VWS V14.01,2013-06-21 13:45:00,
2013-06-21 09:50:00,67.6,57.1,30.24,West,265,1.0,4.0,69,0.00,,---,0.00,VWS V14.01,2013-06-21 13:50:00,
2013-06-21 09:55:00,68.0,57.1,30.24,West,272,1.0,4.0,68,0.00,,---,0.00,VWS V14.01,2013-06-21 13:55:00,
2013-06-21 10:00:00,68.4,57.0,30.23,NNW,336,0.0,2.0,67,0.00,,---,0.00,VWS V14.01,2013-06-21 14:00:00,
2013-06-21 10:05:00,68.7,55.6,30.23,NNE,31,2.0,2.0,63,0.00,,---,0.00,VWS V14.01,2013-06-21 14:05:00,
2013-06-21 10:10:00,69.0,56.3,30.23,NNW,327,2.0,2.0,64,0.00,,---,0.00,VWS V14.01,2013-06-21 14:10:00,
2013-06-21 10:15:00,69.3,54.8,30.24,East,89,2.0,4.0,60,0.00,,---,0.00,VWS V14.01,2013-06-21 14:15:00,
2013-06-21 10:20:00,69.6,55.1,30.24,NNW,336,0.0,4.0,60,0.00,,---,0.00,VWS V14.01,2013-06-21 14:20:00,
2013-06-21 10:25:00,69.9,54.9,30.24,NE,39,1.0,1.0,59,0.00,,---,0.00,VWS V14.01,2013-06-21 14:25:00,
2013-06-21 10:30:00,70.3,56.2,30.24,NE,50,2.0,2.0,61,0.00,,---,0.00,VWS V14.01,2013-06-21 14:30:00,
2013-06-21 10:35:00,71.0,55.5,30.23,NW,319,0.0,2.0,58,0.00,,---,0.00,VWS V14.01,2013-06-21 14:35:00,
2013-06-21 10:40:00,71.6,55.6,30.24,NE,46,1.0,2.0,57,0.00,,---,0.00,VWS V14.01,2013-06-21 14:40:00,
2013-06-21 10:45:00,72.2,55.2,30.24,NE,46,0.0,2.0,55,0.00,,---,0.00,VWS V14.01,2013-06-21 14:45:00,
2013-06-21 10:50:00,72.9,57.3,30.23,NE,39,0.0,2.0,58,0.00,,---,0.00,VWS V14.01,2013-06-21 14:50:00,
2013-06-21 10:55:00,73.7,58.0,30.23,NE,54,0.0,1.0,58,0.00,,---,0.00,VWS V14.01,2013-06-21 14:55:00,
2013-06-21 11:00:00,74.0,56.3,30.23,NNW,332,1.0,4.0,54,0.00,,---,0.00,VWS V14.01,2013-06-21 15:00:00,
2013-06-21 11:05:00,74.2,55.5,30.23,NNE,17,3.0,4.0,52,0.00,,---,0.00,VWS V14.01,2013-06-21 15:05:00,
2013-06-21 11:11:00,74.4,56.7,30.23,ESE,104,2.0,4.0,54,0.00,,---,0.00,VWS V14.01,2013-06-21 15:11:00,
2013-06-21 11:16:00,74.6,56.9,30.23,ENE,61,0.0,4.0,54,0.00,,---,0.00,VWS V14.01,2013-06-21 15:16:00,
2013-06-21 11:21:00,74.9,57.7,30.23,ENE,69,1.0,4.0,55,0.00,,---,0.00,VWS V14.01,2013-06-21 15:21:00,
2013-06-21 11:26:00,75.3,58.0,30.23,NNE,15,0.0,1.0,55,0.00,,---,0.00,VWS V14.01,2013-06-21 15:26:00,
2013-06-21 11:31:00,75.5,57.2,30.24,NE,44,1.0,4.0,53,0.00,,---,0.00,VWS V14.01,2013-06-21 15:31:00,
2013-06-21 11:36:00,75.6,58.3,30.24,North,351,1.0,4.0,55,0.00,,---,0.00,VWS V14.01,2013-06-21 15:36:00,
2013-06-21 11:41:00,76.1,58.3,30.24,NNE,26,1.0,4.0,54,0.00,,---,0.00,VWS V14.01,2013-06-21 15:41:00,
2013-06-21 11:46:00,76.6,58.7,30.23,NE,34,2.0,4.0,54,0.00,,---,0.00,VWS V14.01,2013-06-21 15:46:00,
2013-06-21 11:51:00,76.8,57.9,30.23,WNW,284,0.0,4.0,52,0.00,,---,0.00,VWS V14.01,2013-06-21 15:51:00,
2013-06-21 11:56:00,77.0,59.1,30.23,South,184,0.0,1.0,54,0.00,,---,0.00,VWS V14.01,2013-06-21 15:56:00,
2013-06-21 12:01:00,77.6,59.7,30.23,West,273,0.0,2.0,54,0.00,,---,0.00,VWS V14.01,2013-06-21 16:01:00,
2013-06-21 12:06:00,78.1,60.1,30.23,NE,53,1.0,2.0,54,0.00,,---,0.00,VWS V14.01,2013-06-21 16:06:00,
2013-06-21 12:11:00,78.3,59.8,30.23,NNW,329,1.0,4.0,53,0.00,,---,0.00,VWS V14.01,2013-06-21 16:11:00,
2013-06-21 12:16:00,78.3,60.3,30.23,East,82,0.0,4.0,54,0.00,,---,0.00,VWS V14.01,2013-06-21 16:16:00,
2013-06-21 12:21:00,78.8,60.8,30.23,NW,313,0.0,4.0,54,0.00,,---,0.00,VWS V14.01,2013-06-21 16:21:00,
2013-06-21 12:26:00,79.3,61.8,30.23,NE,55,0.0,1.0,55,0.00,,---,0.00,VWS V14.01,2013-06-21 16:26:00,
2013-06-21 12:31:00,79.6,62.0,30.23,SSE,165,1.0,1.0,55,0.00,,---,0.00,VWS V14.01,2013-06-21 16:31:00,
2013-06-21 12:36:00,79.7,61.1,30.23,ENE,76,0.0,2.0,53,0.00,,---,0.00,VWS V14.01,2013-06-21 16:36:00,
2013-06-21 12:42:00,80.0,60.3,30.23,NW,319,1.0,2.0,51,0.00,,---,0.00,VWS V14.01,2013-06-21 16:42:00,
2013-06-21 12:47:00,80.3,61.6,30.23,SSE,150,1.0,2.0,53,0.00,,---,0.00,VWS V14.01,2013-06-21 16:47:00,
2013-06-21 12:52:00,80.6,60.3,30.23,NW,326,1.0,2.0,50,0.00,,---,0.00,VWS V14.01,2013-06-21 16:52:00,
2013-06-21 12:57:00,80.5,61.3,30.23,NE,36,1.0,2.0,52,0.00,,---,0.00,VWS V14.01,2013-06-21 16:57:00,
2013-06-21 13:02:00,80.6,60.3,30.23,NW,310,1.0,2.0,50,0.00,,---,0.00,VWS V14.01,2013-06-21 17:02:00,
2013-06-21 13:07:00,80.8,61.0,30.23,SW,214,2.0,2.0,51,0.00,,---,0.00,VWS V14.01,2013-06-21 17:07:00,
2013-06-21 13:12:00,80.7,60.3,30.23,ENE,69,2.0,4.0,50,0.00,,---,0.00,VWS V14.01,2013-06-21 17:12:00,
2013-06-21 13:18:00,80.9,61.6,30.22,ENE,76,1.0,4.0,52,0.00,,---,0.00,VWS V14.01,2013-06-21 17:18:00,
2013-06-21 13:23:00,81.1,60.2,30.22,ENE,78,1.0,4.0,49,0.00,,---,0.00,VWS V14.01,2013-06-21 17:23:00,
2013-06-21 13:28:00,81.6,61.7,30.22,East,101,0.0,2.0,51,0.00,,---,0.00,VWS V14.01,2013-06-21 17:28:00,
2013-06-21 13:33:00,81.7,60.7,30.22,SSW,206,1.0,5.0,49,0.00,,---,0.00,VWS V14.01,2013-06-21 17:33:00,
2013-06-21 13:39:00,81.8,61.4,30.22,SE,146,1.0,5.0,50,0.00,,---,0.00,VWS V14.01,2013-06-21 17:39:00,
2013-06-21 13:44:00,81.6,58.2,30.22,WNW,293,1.0,5.0,45,0.00,,---,0.00,VWS V14.01,2013-06-21 17:44:00,
2013-06-21 13:46:00,81.6,59.4,30.22,NNE,15,0.0,5.0,47,0.00,,---,0.00,VWS V14.01,2013-06-21 17:46:00,
2013-06-21 13:49:00,81.8,58.4,30.23,NW,318,1.0,5.0,45,0.00,,---,0.00,VWS V14.01,2013-06-21 17:49:00,
2013-06-21 13:54:00,82.4,59.6,30.23,NNE,16,1.0,5.0,46,0.00,,---,0.00,VWS V14.01,2013-06-21 17:54:00,
2013-06-21 13:59:00,82.7,58.0,30.22,SSW,211,1.0,1.0,43,0.00,,---,0.00,VWS V14.01,2013-06-21 17:59:00,
2013-06-21 14:04:00,82.8,60.5,30.22,East,84,1.0,2.0,47,0.00,,---,0.00,VWS V14.01,2013-06-21 18:04:00,
2013-06-21 14:09:00,82.5,57.8,30.22,NW,311,2.0,2.0,43,0.00,,---,0.00,VWS V14.01,2013-06-21 18:09:00,
2013-06-21 14:15:00,82.4,58.3,30.22,NNW,342,1.0,2.0,44,0.00,,---,0.00,VWS V14.01,2013-06-21 18:15:00,
2013-06-21 14:20:00,83.0,58.2,30.22,North,5,1.0,2.0,43,0.00,,---,0.00,VWS V14.01,2013-06-21 18:20:00,
2013-06-21 14:23:00,83.2,58.4,30.22,SSE,164,1.0,2.0,43,0.00,,---,0.00,VWS V14.01,2013-06-21 18:23:00,
2013-06-21 14:24:00,83.2,59.0,30.22,SSE,168,2.0,2.0,44,0.00,,---,0.00,VWS V14.01,2013-06-21 18:24:00,
2013-06-21 14:25:00,83.3,58.5,30.22,WNW,296,1.0,1.0,43,0.00,,---,0.00,VWS V14.01,2013-06-21 18:25:00,
2013-06-21 14:30:00,83.3,58.5,30.22,NE,55,1.0,1.0,43,0.00,,---,0.00,VWS V14.01,2013-06-21 18:30:00,
2013-06-21 14:35:00,83.1,57.0,30.22,ENE,66,1.0,1.0,41,0.00,,---,0.00,VWS V14.01,2013-06-21 18:35:00,
2013-06-21 14:40:00,82.8,56.7,30.22,ESE,119,0.0,1.0,41,0.00,,---,0.00,VWS V14.01,2013-06-21 18:40:00,
2013-06-21 14:45:00,83.3,57.2,30.21,West,273,1.0,1.0,41,0.00,,---,0.00,VWS V14.01,2013-06-21 18:45:00,
2013-06-21 14:46:00,83.4,55.9,30.21,West,269,0.0,1.0,39,0.00,,---,0.00,VWS V14.01,2013-06-21 18:46:00,
2013-06-21 14:51:00,83.8,58.9,30.21,WNW,300,2.0,2.0,43,0.00,,---,0.00,VWS V14.01,2013-06-21 18:51:00,
2013-06-21 14:56:00,82.8,55.3,30.21,SE,137,0.0,2.0,39,0.00,,---,0.00,VWS V14.01,2013-06-21 18:56:00,
2013-06-21 15:01:00,83.5,58.7,30.21,WNW,292,0.0,2.0,43,0.00,,---,0.00,VWS V14.01,2013-06-21 19:01:00,
2013-06-21 15:06:00,84.1,56.5,30.21,WNW,288,0.0,2.0,39,0.00,,---,0.00,VWS V14.01,2013-06-21 19:06:00,
2013-06-21 15:11:00,84.2,58.0,30.21,SE,138,0.0,2.0,41,0.00,,---,0.00,VWS V14.01,2013-06-21 19:11:00,
2013-06-21 15:16:00,84.4,58.2,30.20,WNW,285,0.0,2.0,41,0.00,,---,0.00,VWS V14.01,2013-06-21 19:16:00,
2013-06-21 15:20:00,84.3,58.1,30.20,NE,39,1.0,2.0,41,0.00,,---,0.00,VWS V14.01,2013-06-21 19:20:00,
2013-06-21 15:25:00,84.3,58.1,30.20,NNE,19,0.0,1.0,41,0.00,,---,0.00,VWS V14.01,2013-06-21 19:25:00,
2013-06-21 15:30:00,83.9,59.0,30.19,South,176,1.0,2.0,43,0.00,,---,0.00,VWS V14.01,2013-06-21 19:30:00,
2013-06-21 15:35:00,83.7,58.8,30.20,NNW,348,0.0,2.0,43,0.00,,---,0.00,VWS V14.01,2013-06-21 19:35:00,
2013-06-21 15:40:00,84.0,59.1,30.20,West,264,0.0,2.0,43,0.00,,---,0.00,VWS V14.01,2013-06-21 19:40:00,
2013-06-21 15:43:00,84.0,59.1,30.20,SW,229,0.0,2.0,43,0.00,,---,0.00,VWS V14.01,2013-06-21 19:43:00,
2013-06-21 15:48:00,84.3,60.0,30.20,NE,49,0.0,2.0,44,0.00,,---,0.00,VWS V14.01,2013-06-21 19:48:00,
2013-06-21 15:53:00,84.5,60.2,30.20,NW,307,1.0,2.0,44,0.00,,---,0.00,VWS V14.01,2013-06-21 19:53:00,
2013-06-21 15:58:00,84.6,60.9,30.20,NW,321,0.0,1.0,45,0.00,,---,0.00,VWS V14.01,2013-06-21 19:58:00,
2013-06-21 16:03:00,84.7,59.1,30.20,NW,310,1.0,2.0,42,0.00,,---,0.00,VWS V14.01,2013-06-21 20:03:00,
2013-06-21 16:04:00,84.6,59.0,30.20,NW,311,1.0,2.0,42,0.00,,---,0.00,VWS V14.01,2013-06-21 20:04:00,
2013-06-21 16:09:00,84.4,59.5,30.20,NNW,329,1.0,2.0,43,0.00,,---,0.00,VWS V14.01,2013-06-21 20:09:00,
2013-06-21 16:11:00,84.5,59.6,30.20,ESE,117,1.0,2.0,43,0.00,,---,0.00,VWS V14.01,2013-06-21 20:11:00,
2013-06-21 16:15:00,84.5,60.2,30.20,East,91,0.0,2.0,44,0.00,,---,0.00,VWS V14.01,2013-06-21 20:15:00,
2013-06-21 16:20:00,84.3,58.7,30.20,NNE,19,2.0,2.0,42,0.00,,---,0.00,VWS V14.01,2013-06-21 20:20:00,
2013-06-21 16:25:00,84.1,61.1,30.19,NW,321,1.0,1.0,46,0.00,,---,0.00,VWS V14.01,2013-06-21 20:25:00,
2013-06-21 16:30:00,84.0,60.4,30.19,NNE,13,0.0,2.0,45,0.00,,---,0.00,VWS V14.01,2013-06-21 20:30:00,
2013-06-21 16:35:00,84.3,61.3,30.19,NW,326,0.0,2.0,46,0.00,,---,0.00,VWS V14.01,2013-06-21 20:35:00,
2013-06-21 16:40:00,84.5,61.5,30.19,NE,44,0.0,2.0,46,0.00,,---,0.00,VWS V14.01,2013-06-21 20:40:00,
2013-06-21 16:45:00,84.8,62.3,30.19,NNW,343,1.0,2.0,47,0.00,,---,0.00,VWS V14.01,2013-06-21 20:45:00,
2013-06-21 16:50:00,84.5,61.5,30.19,NW,322,0.0,2.0,46,0.00,,---,0.00,VWS V14.01,2013-06-21 20:50:00,
2013-06-21 16:55:00,84.0,61.0,30.18,ENE,58,0.0,0.0,46,0.00,,---,0.00,VWS V14.01,2013-06-21 20:55:00,
2013-06-21 17:00:00,84.1,61.7,30.18,NNE,19,1.0,1.0,47,0.00,,---,0.00,VWS V14.01,2013-06-21 21:00:00,
2013-06-21 17:04:00,83.9,62.1,30.18,North,349,0.0,1.0,48,0.00,,---,0.00,VWS V14.01,2013-06-21 21:04:00,
2013-06-21 17:09:00,84.0,61.0,30.18,NE,55,1.0,1.0,46,0.00,,---,0.00,VWS V14.01,2013-06-21 21:09:00,
2013-06-21 17:14:00,84.0,62.2,30.18,ENE,61,0.0,1.0,48,0.00,,---,0.00,VWS V14.01,2013-06-21 21:14:00,
2013-06-21 17:19:00,83.7,62.0,30.18,NNE,16,0.0,3.0,48,0.00,,---,0.00,VWS V14.01,2013-06-21 21:19:00,
2013-06-21 17:24:00,84.0,63.4,30.18,NNE,27,0.0,3.0,50,0.00,,---,0.00,VWS V14.01,2013-06-21 21:24:00,
2013-06-21 17:29:00,84.6,63.9,30.18,NE,36,1.0,1.0,50,0.00,,---,0.00,VWS V14.01,2013-06-21 21:29:00,
2013-06-21 17:34:00,84.3,62.5,30.17,ENE,66,0.0,1.0,48,0.00,,---,0.00,VWS V14.01,2013-06-21 21:34:00,
2013-06-21 17:39:00,84.1,61.7,30.17,WNW,302,0.0,4.0,47,0.00,,---,0.00,VWS V14.01,2013-06-21 21:39:00,
2013-06-21 17:44:00,83.6,62.4,30.17,NNE,24,1.0,4.0,49,0.00,,---,0.00,VWS V14.01,2013-06-21 21:44:00,
2013-06-21 17:49:00,83.8,63.8,30.17,SE,141,1.0,4.0,51,0.00,,---,0.00,VWS V14.01,2013-06-21 21:49:00,
2013-06-21 17:54:00,84.1,64.0,30.17,East,80,1.0,4.0,51,0.00,,---,0.00,VWS V14.01,2013-06-21 21:54:00,
2013-06-21 17:59:00,83.9,63.8,30.17,NW,310,0.0,2.0,51,0.00,,---,0.00,VWS V14.01,2013-06-21 21:59:00,
2013-06-21 18:04:00,82.7,62.8,30.17,NNW,340,1.0,2.0,51,0.00,,---,0.00,VWS V14.01,2013-06-21 22:04:00,
2013-06-21 18:09:00,81.9,63.6,30.17,NNE,27,0.0,2.0,54,0.00,,---,0.00,VWS V14.01,2013-06-21 22:09:00,
2013-06-21 18:14:00,81.3,63.1,30.17,NW,311,0.0,2.0,54,0.00,,---,0.00,VWS V14.01,2013-06-21 22:14:00,
2013-06-21 18:19:00,80.8,64.2,30.17,NE,55,0.0,2.0,57,0.00,,---,0.00,VWS V14.01,2013-06-21 22:19:00,
2013-06-21 18:24:00,80.3,63.7,30.17,South,171,1.0,2.0,57,0.00,,---,0.00,VWS V14.01,2013-06-21 22:24:00,
2013-06-21 18:29:00,79.8,63.7,30.17,NW,323,0.0,1.0,58,0.00,,---,0.00,VWS V14.01,2013-06-21 22:29:00,
2013-06-21 18:35:00,79.6,64.0,30.17,NW,323,0.0,1.0,59,0.00,,---,0.00,VWS V14.01,2013-06-21 22:35:00,
2013-06-21 18:40:00,79.5,64.9,30.17,East,84,2.0,2.0,61,0.00,,---,0.00,VWS V14.01,2013-06-21 22:40:00,
2013-06-21 18:45:00,79.1,65.0,30.17,ENE,64,0.0,2.0,62,0.00,,---,0.00,VWS V14.01,2013-06-21 22:45:00,
2013-06-21 18:50:00,78.7,64.6,30.17,ENE,61,0.0,2.0,62,0.00,,---,0.00,VWS V14.01,2013-06-21 22:50:00,
2013-06-21 18:55:00,78.4,64.3,30.17,West,281,0.0,2.0,62,0.00,,---,0.00,VWS V14.01,2013-06-21 22:55:00,
2013-06-21 19:00:00,78.2,64.6,30.17,West,281,0.0,0.0,63,0.00,,---,0.00,VWS V14.01,2013-06-21 23:00:00,
2013-06-21 19:05:00,77.9,63.8,30.17,SW,229,0.0,0.0,62,0.00,,---,0.00,VWS V14.01,2013-06-21 23:05:00,
2013-06-21 19:10:00,77.6,64.9,30.17,SW,230,0.0,0.0,65,0.00,,---,0.00,VWS V14.01,2013-06-21 23:10:00,
2013-06-21 19:15:00,77.4,65.2,30.17,SW,229,0.0,0.0,66,0.00,,---,0.00,VWS V14.01,2013-06-21 23:15:00,
2013-06-21 19:20:00,77.2,65.0,30.17,SW,229,0.0,0.0,66,0.00,,---,0.00,VWS V14.01,2013-06-21 23:20:00,
2013-06-21 19:25:00,77.0,65.2,30.17,SW,229,0.0,0.0,67,0.00,,---,0.00,VWS V14.01,2013-06-21 23:25:00,
2013-06-21 19:30:00,76.7,64.9,30.17,SW,229,0.0,0.0,67,0.00,,---,0.00,VWS V14.01,2013-06-21 23:30:00,
2013-06-21 19:35:00,76.4,64.6,30.17,SW,229,0.0,0.0,67,0.00,,---,0.00,VWS V14.01,2013-06-21 23:35:00,
2013-06-21 19:40:00,76.0,64.7,30.18,SW,229,0.0,0.0,68,0.00,,---,0.00,VWS V14.01,2013-06-21 23:40:00,
2013-06-21 19:45:00,75.6,64.7,30.18,SW,229,0.0,0.0,69,0.00,,---,0.00,VWS V14.01,2013-06-21 23:45:00,
2013-06-21 19:50:00,75.3,64.4,30.18,SW,229,0.0,0.0,69,0.00,,---,0.00,VWS V14.01,2013-06-21 23:50:00,
2013-06-21 19:55:00,74.9,64.5,30.18,SW,229,0.0,0.0,70,0.00,,---,0.00,VWS V14.01,2013-06-21 23:55:00,
2013-06-21 20:00:00,74.7,64.7,30.17,SW,229,0.0,0.0,71,0.00,,---,0.00,VWS V14.01,2013-06-22 00:00:00,
2013-06-21 20:05:00,74.3,64.3,30.17,SW,229,0.0,0.0,71,0.00,,---,0.00,VWS V14.01,2013-06-22 00:05:00,
2013-06-21 20:10:00,73.9,64.3,30.17,SW,229,0.0,0.0,72,0.00,,---,0.00,VWS V14.01,2013-06-22 00:10:00,
2013-06-21 20:15:00,73.4,64.6,30.17,SW,229,0.0,0.0,74,0.00,,---,0.00,VWS V14.01,2013-06-22 00:15:00,
2013-06-21 20:20:00,72.9,64.5,30.17,SW,229,0.0,0.0,75,0.00,,---,0.00,VWS V14.01,2013-06-22 00:20:00,
2013-06-21 20:25:00,72.3,64.3,30.17,SW,229,0.0,0.0,76,0.00,,---,0.00,VWS V14.01,2013-06-22 00:25:00,
2013-06-21 20:30:00,71.8,64.6,30.17,SW,229,0.0,0.0,78,0.00,,---,0.00,VWS V14.01,2013-06-22 00:30:00,
2013-06-21 20:35:00,71.3,64.5,30.17,SW,229,0.0,0.0,79,0.00,,---,0.00,VWS V14.01,2013-06-22 00:35:00,
2013-06-21 20:40:00,70.9,64.4,30.17,SW,229,0.0,0.0,80,0.00,,---,0.00,VWS V14.01,2013-06-22 00:40:00,
2013-06-21 20:45:00,70.5,64.0,30.17,SW,229,0.0,0.0,80,0.00,,---,0.00,VWS V14.01,2013-06-22 00:45:00,
2013-06-21 20:50:00,70.0,63.9,30.17,SW,229,0.0,0.0,81,0.00,,---,0.00,VWS V14.01,2013-06-22 00:50:00,
2013-06-21 20:55:00,69.6,63.9,30.17,SW,229,0.0,0.0,82,0.00,,---,0.00,VWS V14.01,2013-06-22 00:55:00,
2013-06-21 21:00:00,69.1,63.7,30.17,SW,229,0.0,0.0,83,0.00,,---,0.00,VWS V14.01,2013-06-22 01:00:00,
2013-06-21 21:05:00,68.8,63.4,30.17,SW,229,0.0,0.0,83,0.00,,---,0.00,VWS V14.01,2013-06-22 01:05:00,
2013-06-21 21:10:00,68.5,63.5,30.17,SW,229,0.0,0.0,84,0.00,,---,0.00,VWS V14.01,2013-06-22 01:10:00,
2013-06-21 21:15:00,68.3,63.3,30.17,SW,229,0.0,0.0,84,0.00,,---,0.00,VWS V14.01,2013-06-22 01:15:00,
2013-06-21 21:20:00,68.1,63.4,30.17,SW,229,0.0,0.0,85,0.00,,---,0.00,VWS V14.01,2013-06-22 01:20:00,
2013-06-21 21:25:00,67.9,62.9,30.17,SW,229,0.0,0.0,84,0.00,,---,0.00,VWS V14.01,2013-06-22 01:25:00,
2013-06-21 21:30:00,67.7,63.0,30.17,SW,229,0.0,0.0,85,0.00,,---,0.00,VWS V14.01,2013-06-22 01:30:00,
2013-06-21 21:35:00,67.4,63.1,30.17,SW,229,0.0,0.0,86,0.00,,---,0.00,VWS V14.01,2013-06-22 01:35:00,
2013-06-21 21:41:00,67.2,62.9,30.17,SW,229,0.0,0.0,86,0.00,,---,0.00,VWS V14.01,2013-06-22 01:41:00,
2013-06-21 21:46:00,67.0,62.7,30.17,SW,229,0.0,0.0,86,0.00,,---,0.00,VWS V14.01,2013-06-22 01:46:00,
2013-06-21 21:51:00,66.7,62.7,30.17,SW,229,0.0,0.0,87,0.00,,---,0.00,VWS V14.01,2013-06-22 01:51:00,
2013-06-21 21:56:00,66.5,62.5,30.18,SW,229,0.0,0.0,87,0.00,,---,0.00,VWS V14.01,2013-06-22 01:56:00,
2013-06-21 22:01:00,66.4,62.7,30.18,SW,229,0.0,0.0,88,0.00,,---,0.00,VWS V14.01,2013-06-22 02:01:00,
2013-06-21 22:06:00,66.2,62.5,30.18,SW,229,0.0,0.0,88,0.00,,---,0.00,VWS V14.01,2013-06-22 02:06:00,
2013-06-21 22:11:00,66.1,62.5,30.18,SW,229,0.0,0.0,88,0.00,,---,0.00,VWS V14.01,2013-06-22 02:11:00,
2013-06-21 22:16:00,66.0,62.7,30.18,SW,229,0.0,0.0,89,0.00,,---,0.00,VWS V14.01,2013-06-22 02:16:00,
2013-06-21 22:21:00,65.9,62.6,30.19,SW,229,0.0,0.0,89,0.00,,---,0.00,VWS V14.01,2013-06-22 02:21:00,
2013-06-21 22:26:00,65.8,62.5,30.18,SW,229,0.0,0.0,89,0.00,,---,0.00,VWS V14.01,2013-06-22 02:26:00,
2013-06-21 22:31:00,65.7,62.4,30.18,SW,229,0.0,0.0,89,0.00,,---,0.00,VWS V14.01,2013-06-22 02:31:00,
2013-06-21 22:36:00,65.5,62.2,30.19,SW,229,0.0,0.0,89,0.00,,---,0.00,VWS V14.01,2013-06-22 02:36:00,
2013-06-21 22:41:00,65.4,62.1,30.19,SW,229,0.0,0.0,89,0.00,,---,0.00,VWS V14.01,2013-06-22 02:41:00,
2013-06-21 22:46:00,65.3,62.0,30.19,SW,229,0.0,0.0,89,0.00,,---,0.00,VWS V14.01,2013-06-22 02:46:00,
2013-06-21 22:51:00,65.2,61.9,30.18,SW,229,0.0,0.0,89,0.00,,---,0.00,VWS V14.01,2013-06-22 02:51:00,
2013-06-21 22:56:00,65.2,62.2,30.18,SW,229,0.0,0.0,90,0.00,,---,0.00,VWS V14.01,2013-06-22 02:56:00,
2013-06-21 23:01:00,65.1,62.1,30.18,SW,229,0.0,0.0,90,0.00,,---,0.00,VWS V14.01,2013-06-22 03:01:00,
2013-06-21 23:06:00,65.0,62.0,30.18,SW,229,0.0,0.0,90,0.00,,---,0.00,VWS V14.01,2013-06-22 03:06:00,
2013-06-21 23:11:00,64.9,61.9,30.19,SW,229,0.0,0.0,90,0.00,,---,0.00,VWS V14.01,2013-06-22 03:11:00,
2013-06-21 23:16:00,64.8,62.1,30.19,SW,229,0.0,0.0,91,0.00,,---,0.00,VWS V14.01,2013-06-22 03:16:00,
2013-06-21 23:21:00,64.8,62.1,30.18,SW,229,0.0,0.0,91,0.00,,---,0.00,VWS V14.01,2013-06-22 03:21:00,
2013-06-21 23:26:00,64.6,61.9,30.18,SW,229,0.0,0.0,91,0.00,,---,0.00,VWS V14.01,2013-06-22 03:26:00,
2013-06-21 23:31:00,64.5,61.8,30.18,SW,229,0.0,0.0,91,0.00,,---,0.00,VWS V14.01,2013-06-22 03:31:00,
2013-06-21 23:36:00,64.4,61.7,30.18,SW,229,0.0,0.0,91,0.00,,---,0.00,VWS V14.01,2013-06-22 03:36:00,
2013-06-21 23:41:00,64.4,61.7,30.18,SW,229,0.0,0.0,91,0.00,,---,0.00,VWS V14.01,2013-06-22 03:41:00,
2013-06-21 23:46:00,64.3,61.6,30.18,SW,229,0.0,0.0,91,0.00,,---,0.00,VWS V14.01,2013-06-22 03:46:00,
2013-06-21 23:51:00,64.3,61.9,30.18,SW,229,0.0,0.0,92,0.00,,---,0.00,VWS V14.01,2013-06-22 03:51:00,
2013-06-21 23:56:00,64.2,61.8,30.18,SW,229,0.0,0.0,92,0.00,,---,0.00,VWS V14.01,2013-06-22 03:56:00,